User: anonymous   Login
Location: Unspecified
(0.0000°N, 0.0000°E)
Time: 12:22:48
(UTC+00:00)
Language:

KORONAS-FOTON - Orbit

View from above orbital plane
View from above orbital plane
View from above satellite
View from above satellite

Ground track
Ground track

The orbit data is extracted from the following two-line orbital elements,

1 33504U 09003A   17056.33096319  .00001294  00000-0  67862-4 0  9999
2 33504  82.4457 344.1235 0020616 133.0986 227.1976 15.14697719444549
Epoch (UTC): 25 February 2017 07:56:35
Eccentricity: 0.0020616
inclination: 82.4457°
perigee height: 507 km
apogee height: 536 km
right ascension of ascending node: 344.1235°
argument of perigee: 133.0986°
revolutions per day: 15.14697719
mean anomaly at epoch: 227.1976°
orbit number at epoch: 44454

The dashed part of the orbit path shows where the satellite is in the earth's shadow,  

DLR